Location: Anaheim Mobile Home Estates
(33.8153°N, 117.9967°W)
Time: 16:43:09
(UTC+00:00)

USA 234 - Pass Details

Date: 05 August 2024
Orbit: 1100 x 1107 km, 123.0° (Epoch: 08 July)

Event Time Altitude Azimuth Distance (km) Brightness Sun altitude
Rises 12:03:09 0° 38° (NE) 3,928 7.6 -12.8°
Reaches altitude 10° 12:05:42 10° 33° (NNE) 2,967 6.6 -12.4°
Maximum altitude 12:12:00 53° 319° (NW) 1,337 3.7 -11.2°
Enters shadow 12:17:49 12° 246° (WSW) 2,783 4.7 -10.2°
